Overview Statistics Trail Chart Weather Telemetry Raw packets
 

This is the latest recevied weather packets stored in our database for station/object IU7URP-17. If no packets are shown the sender has not sent any weather packets the latest 10 day(s).

<< 6 7 8 9 10 11 12 >>
Time Temp. Humidity Pressure Rain* Wind** Luminosity Snow
1788389651 23.33° C 67% 1017.4 hPa - - - -
1788388447 23.33° C 66% 1017.5 hPa - - - -
1788387243 23.33° C 65% 1017.4 hPa - - - -
1788386039 23.89° C 64% 1017.4 hPa - - - -
1788384835 24.44° C 63% 1017.4 hPa - - - -
1788383631 24.44° C 63% 1017.3 hPa - - - -
1788382427 25° C 61% 1017.2 hPa - - - -
1788381223 25° C 61% 1017.1 hPa - - - -
1788380019 25.56° C 59% 1017.4 hPa - - - -
1788378815 26.11° C 59% 1017.5 hPa - - - -
1788377611 26.11° C 59% 1017.5 hPa - - - -
1788376407 26.11° C 59% 1017.3 hPa - - - -
1788375203 26.67° C 58% 1017 hPa - - - -
1788373999 26.67° C 56% 1016.8 hPa - - - -
1788372795 27.22° C 55% 1016.7 hPa - - - -
1788371591 27.78° C 55% 1016.5 hPa - - - -
1788370387 27.78° C 54% 1016.4 hPa - - - -
1788369183 28.33° C 50% 1016.6 hPa - - - -
1788367979 28.33° C 55% 1016.8 hPa - - - -
1788366775 28.33° C 57% 1016.6 hPa - - - -
1788365570 28.33° C 57% 1016.8 hPa - - - -
1788364366 28.89° C 57% 1016.8 hPa - - - -
1788363162 29.44° C 53% 1016.7 hPa - - - -
1788361957 30° C 46% 1016.3 hPa - - - -
1788360753 31.67° C 39% 1016.1 hPa - - - -

* Rain since midnight (hover to see other rain measurements)
** Current wind speed in m/s (hover to see current wind gust speed)